Location: Mentone
(34.5413°N, 85.5351°W)
Time: 04:29:01
(UTC-06:00)

ATLAS 5 CENTAUR R/B - Visible Passes

Search period start: 22 February 2018 00:00
Search period end: 04 March 2018 00:00
Orbit: 605 x 1055 km, 63.4° (Epoch: 07 February)

Date Brightness Start Highest point End Pass type
(mag) Time Alt. Az. Time Alt. Az. Time Alt. Az.
22 Feb 3.8 04:09:57 10° SSE 04:13:28 24° ESE 04:17:11 10° ENE visible
23 Feb 3.8 03:52:55 18° SE 03:54:29 22° ESE 03:58:03 10° ENE visible
23 Feb 2.5 05:34:52 10° WSW 05:38:51 31° NW 05:43:09 10° NNE visible
24 Feb 3.9 03:35:32 20° ESE 03:35:32 20° ESE 03:38:54 10° ENE visible
24 Feb 2.4 05:17:09 18° WSW 05:19:48 34° NW 05:24:12 10° NNE visible
25 Feb 4.3 03:17:55 16° E 03:17:55 16° E 03:19:43 10° ENE visible
25 Feb 2.3 04:59:31 30° W 05:00:45 36° NW 05:05:13 10° NNE visible
26 Feb 4.7 03:00:06 11° ENE 03:00:06 11° ENE 03:00:31 10° ENE visible
26 Feb 2.1 04:41:41 39° NW 04:41:43 39° NW 04:46:15 10° NNE visible
27 Feb 2.5 04:23:44 36° NNW 04:23:44 36° NNW 04:27:15 10° NNE visible
28 Feb 3.1 04:05:39 28° N 04:05:39 28° N 04:08:17 10° NNE visible
01 Mar 3.7 03:47:29 21° NNE 03:47:29 21° NNE 03:49:17 10° NNE visible
02 Mar 4.2 03:29:15 16° NNE 03:29:15 16° NNE 03:30:17 10° NNE visible
03 Mar 4.6 03:10:57 12° NNE 03:10:57 12° NNE 03:11:16 10° NNE visible
